Regional Weather Roundup
Issued by NWS Sioux Falls, SD

Home | Current Version | Previous Version | Graphics & Text | Print | Product List | Glossary Off
Versions: 1 2 3 4 5 6 7 8 9 10 11 12 13 14 15 16 17 18 19 20 21 22 23 24 25 26 27 28 29 30 31 32 33 34 35 36 37 38 39 40 41 42 43 44 45 46 47 48 49 50

000
ASUS43 KFSD 260602
RWRFSD

WEATHER ROUNDUP FOR SE SOUTH DAKOTA/SW MINNESOTA/NW IOWA
NATIONAL WEATHER SERVICE SIOUX FALLS SD
100 AM CDT SUN APR 26 2015

NOTE: "FAIR" INDICATES FEW OR NO CLOUDS BELOW 12,000 FEET WITH NO
SIGNIFICANT WEATHER AND OR OBSTRUCTIONS TO VISIBILITY.


SDZ038>040-050-052>070-260700-
SOUTHEAST SOUTH DAKOTA

CITY           SKY/WX    TMP DP  RH WIND       PRES   REMARKS
BROOKINGS      CLEAR     43  37  81 CALM      29.98R
CHAMBERLAIN    NOT AVBL
HURON          PTCLDY    50  40  68 SE12      29.94R
6HR MIN TEMP:  50; 6HR MAX TEMP:  59;

MADISON        FAIR      41  41 100 SE7       29.96S
MITCHELL       PTCLDY    49  43  80 SE6       29.95R
6HR MIN TEMP:  49; 6HR MAX TEMP:  60;

SIOUX FALLS    PTCLDY    45  37  73 E6        29.96R
6HR MIN TEMP:  45; 6HR MAX TEMP:  57;

WINNER         MOCLDY    50  44  80 E8        29.88F
YANKTON        CLOUDY    52  39  62 E10       29.94S
$$

MNZ071-072-080-081-089-090-097-098-260700-
SOUTHWEST MINNESOTA

CITY           SKY/WX    TMP DP  RH WIND       PRES   REMARKS
FAIRMONT       CLEAR     39  34  81 NW3       29.95R
JACKSON        PTCLDY    36  34  93 CALM      29.96S
LUVERNE        PTCLDY    43  37  81 CALM      29.97R
MARSHALL       CLEAR     39  32  75 CALM      29.97R
6HR MIN TEMP:  39; 6HR MAX TEMP:  57;

MONTEVIDEO     CLEAR     43  34  70 SE9       30.00R
REDWOOD FALLS  CLEAR     46  32  58 E6        29.98R
TRACY          CLEAR     42  36  78 SW5       29.97R
WORTHINGTON    PTCLDY    39  32  75 CALM      29.96S
$$

IAZ001>003-012>014-020>022-031-032-NEZ013-014-SDZ071-260700-
NORTHWEST IOWA

CITY           SKY/WX    TMP DP  RH WIND       PRES   REMARKS
DENISON        CLOUDY    45  43  93 NE6       29.91R
ESTHERVILLE    PTCLDY    35  33  92 N5        29.95R
SIOUX CITY     CLOUDY    50  40  68 SE3       29.94R
6HR MIN TEMP:  50; 6HR MAX TEMP:  57;

SPENCER        CLEAR     39  35  86 NE3       29.95R
6HR MIN TEMP:  39; 6HR MAX TEMP:  53;

$$

ABBREVIATIONS USED IN REMARKS
   TC - TEMPERATURE IN CELSIUS
  WCI - WIND CHILL INDEX
   HX - HEAT INDEX
  VSB - VISIBILITY



USA.gov is the U.S. government's official web portal to all federal, state and local government web resources and services.